When you browse on this site, cookies collect data to enhance your experience and personalize the content and advertising you see.
Visit our Privacy Policy to learn more. By continuing to use the site, you agree to this use of cookies and data.
  • en France
  • Liste des pays
  • À 7 jours
  • Température de l'eau
  • Carte satellitaire
  • Carte météo
  • Widgets météo
  • user-avatar
    Se connecter

    Météo par heure à Rumbek

    Ce jour, 19 Juin, Mercredi

    Heure Température Précipitation Vent Pression Humidité
    00:00 +24°C° 0 mm 1 m/s 724 mmHg 93%
    01:00 +24°C° 0 mm 1 m/s 723 mmHg 93%
    02:00 +24°C° 0 mm 1 m/s 723 mmHg 93%
    03:00 +24°C° 0 mm 1 m/s 723 mmHg 94%
    04:00 +24°C° 0 mm 1 m/s 723 mmHg 94%
    05:00 +23°C° 0 mm 1 m/s 723 mmHg 95%
    06:00 +24°C° 0 mm 1 m/s 724 mmHg 91%
    07:00 +26°C° 0 mm 1 m/s 724 mmHg 88%
    08:00 +27°C° 0 mm 1 m/s 725 mmHg 84%
    09:00 +29°C° 0 mm 1 m/s 725 mmHg 76%
    10:00 +31°C° 0 mm 1 m/s 725 mmHg 67%
    11:00 +33°C° 0 mm 1 m/s 725 mmHg 58%
    12:00 +34°C° 0 mm 1 m/s 724 mmHg 55%
    13:00 +34°C° 0 mm 1 m/s 723 mmHg 52%
    14:00 +35°C° 0 mm 1 m/s 723 mmHg 49%
    15:00 +34°C° 0 mm 1 m/s 722 mmHg 53%
    16:00 +34°C° 0 mm 1 m/s 722 mmHg 57%
    17:00 +33°C° 0 mm 1 m/s 722 mmHg 61%
    18:00 +31°C° 0 mm 1 m/s 722 mmHg 65%
    19:00 +30°C° 0 mm 1 m/s 722 mmHg 69%
    20:00 +28°C° 0 mm 1 m/s 723 mmHg 73%
    21:00 +27°C° 0.7 mm 1 m/s 723 mmHg 78%
    22:00 +26°C° 0.7 mm 1 m/s 723 mmHg 83%
    23:00 +25°C° 0.7 mm 1 m/s 723 mmHg 88%

    Demain, 20 Juin, Jeudi

    Heure Température Précipitation Vent Pression Humidité
    00:00 +25°C° 0.3 mm 1 m/s 723 mmHg 89%
    01:00 +25°C° 0.3 mm 1 m/s 723 mmHg 90%
    02:00 +25°C° 0.3 mm 1 m/s 722 mmHg 91%
    03:00 +24°C° 0 mm 1 m/s 722 mmHg 91%
    04:00 +24°C° 0 mm 1 m/s 723 mmHg 92%
    05:00 +24°C° 0 mm 1 m/s 723 mmHg 92%
    06:00 +25°C° 0 mm 1 m/s 723 mmHg 89%
    07:00 +26°C° 0 mm 1 m/s 724 mmHg 85%
    08:00 +27°C° 0 mm 1 m/s 724 mmHg 81%
    09:00 +29°C° 0 mm 1 m/s 724 mmHg 75%
    10:00 +30°C° 0 mm 1 m/s 724 mmHg 69%
    11:00 +32°C° 0 mm 1 m/s 724 mmHg 62%
    12:00 +31°C° 1.9 mm 2 m/s 723 mmHg 67%
    13:00 +30°C° 1.9 mm 2 m/s 723 mmHg 72%
    14:00 +29°C° 1.9 mm 3 m/s 722 mmHg 77%
    15:00 +28°C° 0.5 mm 3 m/s 722 mmHg 81%
    16:00 +27°C° 0.5 mm 2 m/s 722 mmHg 86%
    17:00 +25°C° 0.5 mm 2 m/s 721 mmHg 90%
    18:00 +25°C° 0 mm 1 m/s 722 mmHg 90%
    19:00 +25°C° 0 mm 1 m/s 722 mmHg 90%
    20:00 +25°C° 0 mm 1 m/s 722 mmHg 90%
    21:00 +24°C° 0 mm 1 m/s 722 mmHg 91%
    22:00 +24°C° 0 mm 1 m/s 723 mmHg 91%
    23:00 +24°C° 0 mm 1 m/s 723 mmHg 91%

    Après-demain, 21 Juin, Vendredi

    Heure Température Précipitation Vent Pression Humidité
    00:00 +24°C° 0 mm 1 m/s 723 mmHg 91%
    01:00 +22°C° 0 mm 0 m/s 722 mmHg 91%
    02:00 +21°C° 0 mm 0 m/s 722 mmHg 91%
    03:00 +23°C° 0 mm 1 m/s 722 mmHg 91%
    04:00 +23°C° 0 mm 1 m/s 722 mmHg 92%
    05:00 +23°C° 0 mm 1 m/s 722 mmHg 92%
    06:00 +24°C° 0 mm 1 m/s 723 mmHg 91%
    07:00 +24°C° 0 mm 1 m/s 723 mmHg 90%
    08:00 +24°C° 0 mm 1 m/s 724 mmHg 89%
    09:00 +26°C° 0 mm 2 m/s 724 mmHg 83%
    10:00 +27°C° 0 mm 2 m/s 724 mmHg 78%
    11:00 +29°C° 0 mm 2 m/s 723 mmHg 72%
    12:00 +30°C° 0 mm 2 m/s 723 mmHg 66%
    13:00 +32°C° 0 mm 2 m/s 723 mmHg 61%
    14:00 +34°C° 0 mm 2 m/s 722 mmHg 55%
    15:00 +34°C° 0 mm 2 m/s 722 mmHg 58%
    16:00 +32°C° 0 mm 1 m/s 721 mmHg 61%
    17:00 +32°C° 0 mm 1 m/s 721 mmHg 64%
    18:00 +30°C° 0 mm 1 m/s 721 mmHg 69%
    19:00 +29°C° 0 mm 1 m/s 722 mmHg 74%
    20:00 +27°C° 0 mm 1 m/s 722 mmHg 79%
    21:00 +27°C° 0 mm 1 m/s 722 mmHg 82%
    22:00 +26°C° 0 mm 1 m/s 722 mmHg 85%
    23:00 +26°C° 0 mm 1 m/s 722 mmHg 88%

    22 Juin, Samedi

    Heure Température Précipitation Vent Pression Humidité
    00:00 +25°C° 0 mm 1 m/s 722 mmHg 89%
    01:00 +25°C° 0 mm 1 m/s 722 mmHg 90%
    02:00 +24°C° 0 mm 1 m/s 721 mmHg 91%
    03:00 +24°C° 0.2 mm 2 m/s 721 mmHg 93%
    04:00 +23°C° 0.2 mm 2 m/s 722 mmHg 94%
    05:00 +23°C° 0.2 mm 2 m/s 722 mmHg 94%
    06:00 +24°C° 0.1 mm 2 m/s 722 mmHg 91%
    07:00 +25°C° 0.1 mm 2 m/s 723 mmHg 88%
    08:00 +26°C° 0.1 mm 2 m/s 723 mmHg 84%
    09:00 +28°C° 0 mm 3 m/s 723 mmHg 76%
    10:00 +30°C° 0 mm 3 m/s 723 mmHg 67%
    11:00 +33°C° 0 mm 3 m/s 723 mmHg 59%
    12:00 +34°C° 0 mm 3 m/s 722 mmHg 57%
    13:00 +34°C° 0 mm 3 m/s 722 mmHg 56%
    14:00 +35°C° 0 mm 3 m/s 721 mmHg 54%
    15:00 +34°C° 0 mm 3 m/s 721 mmHg 57%
    16:00 +34°C° 0 mm 2 m/s 720 mmHg 61%
    17:00 +32°C° 0 mm 2 m/s 720 mmHg 64%
    18:00 +30°C° 2.7 mm 2 m/s 721 mmHg 72%
    19:00 +28°C° 2.7 mm 2 m/s 721 mmHg 81%
    20:00 +26°C° 2.7 mm 2 m/s 721 mmHg 89%
    21:00 +26°C° 1.2 mm 2 m/s 722 mmHg 89%
    22:00 +25°C° 1.2 mm 3 m/s 722 mmHg 90%
    23:00 +25°C° 1.2 mm 3 m/s 722 mmHg 91%

    23 Juin, Dimanche

    Heure Température Précipitation Vent Pression Humidité
    00:00 +25°C° 0 mm 3 m/s 722 mmHg 91%
    01:00 +24°C° 0 mm 2 m/s 721 mmHg 92%
    02:00 +24°C° 0 mm 2 m/s 721 mmHg 92%
    03:00 +24°C° 0 mm 2 m/s 721 mmHg 93%
    04:00 +24°C° 0 mm 2 m/s 721 mmHg 93%
    05:00 +23°C° 0 mm 1 m/s 721 mmHg 94%
    06:00 +24°C° 0 mm 2 m/s 722 mmHg 89%
    07:00 +25°C° 0 mm 2 m/s 723 mmHg 85%
    08:00 +26°C° 0 mm 2 m/s 724 mmHg 80%
    09:00 +27°C° 0 mm 2 m/s 724 mmHg 76%
    10:00 +28°C° 0 mm 2 m/s 724 mmHg 71%
    11:00 +29°C° 0 mm 3 m/s 724 mmHg 67%
    12:00 +30°C° 0 mm 2 m/s 723 mmHg 64%
    13:00 +31°C° 0 mm 2 m/s 722 mmHg 61%
    14:00 +32°C° 0 mm 2 m/s 722 mmHg 59%
    15:00 +30°C° 0.5 mm 2 m/s 722 mmHg 67%
    16:00 +29°C° 0.5 mm 1 m/s 721 mmHg 74%
    17:00 +28°C° 0.5 mm 1 m/s 721 mmHg 82%
    18:00 +27°C° 0.1 mm 1 m/s 721 mmHg 84%
    19:00 +26°C° 0.1 mm 1 m/s 722 mmHg 87%
    20:00 +23°C° 0.1 mm 0 m/s 722 mmHg 89%
    21:00 +25°C° 0 mm 1 m/s 722 mmHg 90%
    22:00 +25°C° 0 mm 1 m/s 722 mmHg 91%
    23:00 +24°C° 0 mm 2 m/s 722 mmHg 93%

    24 Juin, Lundi

    Heure Température Précipitation Vent Pression Humidité
    00:00 +24°C° 0 mm 1 m/s 721 mmHg 93%
    01:00 +24°C° 0 mm 1 m/s 721 mmHg 93%
    02:00 +24°C° 0 mm 1 m/s 721 mmHg 94%
    03:00 +24°C° 0 mm 1 m/s 721 mmHg 93%
    04:00 +24°C° 0 mm 1 m/s 722 mmHg 93%
    05:00 +22°C° 0 mm 0 m/s 722 mmHg 93%
    06:00 +22°C° 0 mm 0 m/s 723 mmHg 92%
    07:00 +23°C° 0 mm 0 m/s 723 mmHg 90%
    08:00 +23°C° 0 mm 0 m/s 724 mmHg 89%
    09:00 +26°C° 0 mm 1 m/s 724 mmHg 85%
    10:00 +27°C° 0 mm 1 m/s 724 mmHg 80%
    11:00 +28°C° 0 mm 2 m/s 723 mmHg 76%
    12:00 +28°C° 0 mm 2 m/s 723 mmHg 72%
    13:00 +29°C° 0 mm 2 m/s 722 mmHg 69%
    14:00 +30°C° 0 mm 2 m/s 721 mmHg 65%
    15:00 +30°C° 0.1 mm 2 m/s 721 mmHg 67%
    16:00 +30°C° 0.1 mm 1 m/s 721 mmHg 68%
    17:00 +30°C° 0.1 mm 1 m/s 721 mmHg 69%
    18:00 +29°C° 0 mm 1 m/s 721 mmHg 74%
    19:00 +27°C° 0 mm 1 m/s 721 mmHg 79%
    20:00 +26°C° 0 mm 1 m/s 722 mmHg 84%
    21:00 +26°C° 0 mm 1 m/s 722 mmHg 86%
    22:00 +25°C° 0 mm 1 m/s 722 mmHg 87%
    23:00 +25°C° 0 mm 1 m/s 722 mmHg 89%
    Voir plus